[[{"header":{"parameterUnit":"m.s-1","parameterCategory":1,"la1":30.2991,"la2":30.254,"lo1":-89.0895,"lo2":-89.0444,"dy":0.0017,"dx":0.0017,"nx":28,"ny":28,"refTime":"2025-05-25T21:00:00:Z","depth":0,"parameterNumber":2,"parameterNumberName":"U-component_of_WINDS"},"data":[0,0,0,0,0,0,0,0,0,0,0,0,0,0,0,0,0,0,0,0,0,0,0,0,0,0,0,0,0,0,0,0,0,0,0,0,0,0,0,0,0,0,0,0,0,0,0,0,0,0,0,0,0,0,0,0,0,0,-0.6867,-0.6867,0,-0.6855,-0.6854,-0.6854,-0.6839,-0.6839,-0.6838,-0.6838,-0.6828,-0.6828,-0.6828,0,0,0,0,0,0,0,0,0,0,0,0,0,-0.688,-0.688,-0.6867,-0.6867,-0.6867,-0.6855,-0.6854,-0.6854,-0.6839,-0.6839,-0.6838,-0.6838,-0.6828,-0.6828,-0.6828,0,0,0,0,0,0,0,0,0,0,0,0,0,-0.6872,-0.688,-0.6867,-0.6858,-0.6857,-0.6855,-0.6854,-0.6854,-0.6839,-0.6839,-0.6838,-0.6838,-0.6828,-0.6828,-0.6828,-0.6835,0,0,-0.6827,-0.6827,0,0,0,0,0,0,0,0,-0.6872,-0.6872,-0.6859,-0.6858,-0.6857,-0.6848,-0.6855,-0.6848,-0.6839,-0.6846,-0.6838,-0.6838,-0.6835,-0.6834,-0.6833,-0.6834,-0.6834,-0.6827,-0.6827,-0.6827,-0.6827,0,0,0,0,0,0,0,-0.6873,-0.6872,-0.6862,-0.6859,-0.6858,-0.6855,-0.6853,-0.6854,-0.6843,-0.6845,-0.6844,-0.6843,-0.6834,-0.6833,-0.6832,-0.6833,-0.6827,-0.6827,-0.6827,-0.6827,-0.684,-0.684,0,0,0,0,0,0,-0.6875,-0.6873,-0.6863,-0.6862,-0.6864,-0.6855,-0.6853,-0.6851,-0.6843,-0.6841,-0.6843,-0.6842,-0.6833,-0.6832,-0.6832,-0.6839,-0.6827,-0.6827,-0.6827,-0.6839,-0.684,-0.684,0,0,0,0,0,0,-0.6875,-0.6874,-0.6863,-0.6867,-0.6865,-0.6855,-0.6853,-0.6851,-0.685,-0.6841,-0.6839,-0.6843,-0.6833,-0.6832,-0.6834,-0.6839,-0.6827,-0.6827,-0.6839,-0.684,-0.684,-0.6854,0,0,0,0,0,0,-0.6876,-0.6874,-0.6876,-0.6867,-0.6865,-0.6865,-0.6854,-0.6851,-0.6849,-0.6848,-0.6841,-0.6839,-0.6832,-0.6834,-0.6834,-0.6838,-0.6827,-0.6838,-0.6839,-0.684,-0.6853,-0.6855,-0.6857,0,0,0,0,0,-0.6876,-0.6881,-0.6876,-0.6875,-0.6867,-0.6865,-0.6864,-0.6855,-0.685,-0.6852,-0.6846,-0.6839,-0.6838,-0.6834,-0.6834,-0.6838,-0.6838,-0.6839,-0.684,-0.6852,-0.6855,-0.6857,0,0,0,0,0,0,-0.6892,-0.688,-0.6874,-0.6877,-0.6872,-0.6862,-0.6865,-0.6858,-0.6856,-0.6854,-0.6845,-0.6843,-0.6846,-0.6843,-0.6838,-0.6845,-0.6837,-0.6838,-0.6847,-0.6849,-0.6851,-0.6851,-0.6827,0,0,0,0,0,-0.6896,-0.6894,-0.6884,-0.6887,-0.6885,-0.6875,-0.6874,-0.6868,-0.6863,-0.6861,-0.6855,-0.6851,-0.685,-0.6849,-0.6848,-0.6853,-0.6851,-0.6856,-0.6857,-0.6859,-0.686,-0.6862,-0.6864,-0.6843,-0.6843,-0.6843,0,0,-0.6904,-0.6897,-0.6897,-0.689,-0.6886,-0.6885,-0.6874,-0.6873,-0.6873,-0.6861,-0.6862,-0.6858,-0.6853,-0.6856,-0.6857,-0.6853,-0.6865,-0.686,-0.6861,-0.6861,-0.6863,-0.6865,-0.6867,-0.6844,-0.6844,-0.6843,0,0,-0.6918,-0.6912,-0.6914,-0.691,-0.6903,-0.6896,-0.6897,-0.6888,-0.6884,-0.6885,-0.6876,-0.6876,-0.6874,-0.687,-0.6868,-0.6881,-0.6874,-0.6881,-0.689,-0.6892,-0.6894,-0.6895,-0.6899,-0.6901,-0.6882,-0.6882,-0.6882,0,-0.6929,-0.6926,-0.6916,-0.6916,-0.6913,-0.6902,-0.6904,-0.69,-0.6893,-0.6892,-0.6888,-0.6885,-0.688,-0.6883,-0.6885,-0.6884,-0.6885,-0.6881,-0.6894,-0.6895,-0.6896,-0.69,-0.6902,-0.6882,-0.6882,-0.6882,-0.6882,0,-0.694,-0.6938,-0.6941,-0.6933,-0.6931,-0.6932,-0.6922,-0.6922,-0.6916,-0.691,-0.6911,-0.6905,-0.6902,-0.6902,-0.6897,-0.6904,-0.6901,-0.6896,-0.6888,-0.6899,-0.6903,-0.6904,-0.6883,-0.6883,-0.6883,-0.6883,0,0,-0.6964,-0.695,-0.6951,-0.6947,-0.6939,-0.6938,-0.6938,-0.6934,-0.6934,-0.693,-0.693,-0.6928,-0.6923,-0.6921,-0.6915,-0.6917,-0.6926,-0.6911,-0.691,-0.6913,-0.6933,-0.6937,-0.6939,-0.6922,-0.6922,-0.6922,-0.6933,0,-0.6976,-0.6975,-0.6966,-0.6968,-0.6966,-0.6955,-0.6956,-0.6951,-0.6946,-0.6944,-0.6939,-0.6937,-0.693,-0.6929,-0.693,-0.6925,-0.693,-0.6924,-0.6923,-0.6923,-0.6924,-0.6941,-0.6945,-0.6956,-0.6935,-0.6935,-0.6935,0,-0.699,-0.6985,-0.6987,-0.6977,-0.6976,-0.6977,-0.6972,-0.6971,-0.6965,-0.6961,-0.6958,-0.6951,-0.6952,-0.6945,-0.6946,-0.6942,-0.6941,-0.6938,-0.6938,-0.6937,-0.6929,-0.694,-0.6959,-0.696,-0.6937,-0.6937,-0.6937,0,-0.7007,-0.7001,-0.7001,-0.6998,-0.6987,-0.6988,-0.6984,-0.6978,-0.6976,-0.6972,-0.6971,-0.6968,-0.6966,-0.6964,-0.6956,-0.6952,-0.6958,-0.695,-0.6955,-0.6955,-0.6956,-0.6956,-0.6975,-0.6957,-0.6957,-0.6956,-0.6956,0,-0.7021,-0.7022,-0.7008,-0.7008,-0.701,-0.6999,-0.7001,-0.6996,-0.699,-0.699,-0.6981,-0.698,-0.697,-0.6969,-0.6964,-0.6965,-0.6964,-0.6962,-0.696,-0.6962,-0.6962,-0.6961,-0.696,-0.6957,-0.6957,-0.6957,-0.6957,0,-0.704,-0.7031,-0.703,-0.7019,-0.7017,-0.7018,-0.7009,-0.7009,-0.7003,-0.7002,-0.7002,-0.6993,-0.6991,-0.6983,-0.698,-0.6976,-0.6979,-0.6976,-0.698,-0.6979,-0.6984,-0.6984,-0.7002,-0.7004,-0.6985,-0.6985,-0.6985,0,-0.705,-0.705,-0.7039,-0.7038,-0.7033,-0.7031,-0.7028,-0.7018,-0.7016,-0.701,-0.7011,-0.7008,-0.7005,-0.7002,-0.6996,-0.6993,-0.699,-0.6996,-0.6989,-0.6991,-0.699,-0.6989,-0.6989,-0.6998,-0.6998,-0.6998,-0.6999,0,-0.7068,-0.7063,-0.7059,-0.7054,-0.7051,-0.7046,-0.7041,-0.7041,-0.703,-0.7028,-0.7025,-0.7023,-0.7018,-0.7016,-0.7012,-0.7008,-0.7002,-0.7001,-0.7002,-0.7004,-0.7006,-0.7005,-0.6984,-0.7,-0.7,-0.7,-0.7,-0.7,-0.7082,-0.7082,-0.7074,-0.707,-0.7065,-0.706,-0.7059,-0.7053,-0.705,-0.7045,-0.7039,-0.7037,-0.7032,-0.7025,-0.7022,-0.7021,-0.7017,-0.7019,-0.7019,-0.702,-0.702,-0.7006,-0.702,-0.702,-0.702,-0.702,-0.702,0,-0.71,-0.7094,-0.709,-0.7083,-0.708,-0.7073,-0.7067,-0.7065,-0.7063,-0.7057,-0.7054,-0.7051,-0.7048,-0.7041,-0.7038,-0.7038,-0.7035,-0.7037,-0.7037,-0.7036,-0.7024,-0.7023,-0.704,-0.704,-0.704,-0.704,-0.704,-0.704,-0.7109,-0.7107,-0.7101,-0.7098,-0.7092,-0.7089,-0.7086,-0.7082,-0.7077,-0.7074,-0.7071,-0.7066,-0.706,-0.7056,-0.7053,-0.7051,-0.705,-0.7054,-0.7051,-0.7039,-0.7037,-0.7036,-0.7035,-0.7054,-0.7054,-0.7063,-0.7063,-0.7063]},{"header":{"parameterUnit":"m.s-1","parameterCategory":1,"la1":30.2991,"la2":30.254,"lo1":-89.0895,"lo2":-89.0444,"dy":0.0017,"dx":0.0017,"nx":28,"ny":28,"refTime":"2025-05-25T21:00:00:Z","depth":0,"parameterNumber":3,"parameterNumberName":"V-component_of_WINDS"},"data":[0,0,0,0,0,0,0,0,0,0,0,0,0,0,0,0,0,0,0,0,0,0,0,0,0,0,0,0,0,0,0,0,0,0,0,0,0,0,0,0,0,0,0,0,0,0,0,0,0,0,0,0,0,0,0,0,0,0,4.4073,4.4073,0,4.4066,4.4066,4.4066,4.4078,4.4079,4.4079,4.4079,4.4066,4.4066,4.4065,0,0,0,0,0,0,0,0,0,0,0,0,0,4.4093,4.4093,4.4073,4.4073,4.4073,4.4066,4.4066,4.4066,4.4078,4.4079,4.4079,4.408,4.4067,4.4066,4.4065,0,0,0,0,0,0,0,0,0,0,0,0,0,4.4085,4.4093,4.4073,4.4078,4.4079,4.4066,4.4066,4.4066,4.4078,4.4079,4.4079,4.408,4.4067,4.4066,4.4065,4.4045,0,0,4.4061,4.4061,0,0,0,0,0,0,0,0,4.4085,4.4084,4.4078,4.4078,4.4078,4.4074,4.4068,4.4059,4.4078,4.4078,4.4079,4.408,4.4068,4.4067,4.4064,4.4044,4.4044,4.4061,4.406,4.406,4.406,0,0,0,0,0,0,0,4.4086,4.4085,4.407,4.4078,4.4078,4.408,4.4079,4.4067,4.4069,4.4078,4.4079,4.4078,4.4068,4.4065,4.4064,4.4044,4.4061,4.406,4.4059,4.4059,4.4009,4.4009,0,0,0,0,0,0,4.4087,4.4085,4.407,4.407,4.4084,4.4079,4.4078,4.4075,4.4069,4.4069,4.4078,4.4079,4.4066,4.4065,4.4063,4.4041,4.406,4.4059,4.4058,4.401,4.4009,4.4009,0,0,0,0,0,0,4.4087,4.4085,4.4071,4.4078,4.4076,4.4078,4.4073,4.4074,4.4071,4.4069,4.4069,4.4074,4.4067,4.4065,4.405,4.404,4.4058,4.4057,4.4011,4.401,4.4009,4.3995,0,0,0,0,0,0,4.4087,4.4085,4.4078,4.4078,4.4076,4.4059,4.4073,4.4073,4.407,4.4071,4.4066,4.4066,4.4067,4.4052,4.4049,4.4039,4.4057,4.4012,4.401,4.4009,4.3997,4.3994,4.3992,0,0,0,0,0,4.4088,4.4073,4.4078,4.4076,4.4068,4.4058,4.4057,4.4061,4.4069,4.4062,4.4061,4.4066,4.4042,4.405,4.4047,4.4037,4.4012,4.4011,4.4009,4.3998,4.3995,4.3992,0,0,0,0,0,0,4.407,4.4073,4.4078,4.4063,4.4061,4.4061,4.4051,4.4057,4.4051,4.4052,4.4055,4.4054,4.4039,4.4037,4.4045,4.4019,4.4028,4.4026,4.4021,4.4018,4.4015,4.4016,4.4056,0,0,0,0,0,4.4065,4.4059,4.4061,4.4047,4.4046,4.4049,4.4045,4.4049,4.4045,4.4044,4.4042,4.4037,4.4029,4.4023,4.4015,4.3997,4.3996,4.3988,4.3986,4.3984,4.3982,4.3973,4.397,4.4004,4.4004,4.4004,0,0,4.4053,4.4054,4.4049,4.4044,4.4042,4.4035,4.4048,4.4039,4.4033,4.4042,4.4029,4.4027,4.4022,4.4006,4.3999,4.4004,4.3973,4.3982,4.3981,4.3979,4.3971,4.3968,4.3965,4.4003,4.4003,4.4003,0,0,4.4027,4.4027,4.4017,4.4016,4.4015,4.4017,4.4015,4.4014,4.4015,4.4002,4.4009,4.4002,4.3987,4.3984,4.398,4.3957,4.3961,4.3954,4.3941,4.3932,4.393,4.3927,4.3919,4.3916,4.3952,4.3952,4.3952,0,4.4011,4.4002,4.401,4.4001,4.3999,4.401,4.3998,4.3997,4.3992,4.3989,4.3996,4.3979,4.3976,4.396,4.3955,4.3952,4.3949,4.3954,4.393,4.3927,4.3925,4.3917,4.3914,4.3951,4.3951,4.3951,4.3952,0,4.3983,4.3977,4.3968,4.3967,4.3963,4.3953,4.3959,4.3954,4.3959,4.3961,4.3948,4.3946,4.3939,4.3935,4.3938,4.392,4.3923,4.393,4.3939,4.3921,4.3914,4.3911,4.395,4.395,4.3951,4.3951,0,0,4.3944,4.3949,4.3946,4.3946,4.3947,4.3941,4.3932,4.3927,4.3924,4.3921,4.3913,4.3902,4.3909,4.3905,4.3908,4.39,4.3883,4.3908,4.3907,4.3903,4.3863,4.3858,4.3854,4.3886,4.3886,4.3885,4.3863,0,4.3919,4.3905,4.3913,4.3898,4.3892,4.3904,4.3896,4.3895,4.3897,4.3891,4.3893,4.3885,4.3895,4.3893,4.3886,4.3886,4.3875,4.3888,4.3878,4.3878,4.3878,4.3851,4.3845,4.3824,4.3861,4.386,4.386,0,4.3887,4.3886,4.3871,4.3875,4.3873,4.3866,4.3863,4.3858,4.3858,4.386,4.3857,4.3863,4.3853,4.3865,4.3852,4.3861,4.3857,4.3857,4.3857,4.3855,4.3867,4.3848,4.3817,4.3814,4.3855,4.3856,4.3856,0,4.386,4.3855,4.3846,4.3845,4.3849,4.3844,4.3846,4.3846,4.3844,4.3841,4.3839,4.3835,4.3832,4.3828,4.3832,4.384,4.3819,4.383,4.382,4.3819,4.3813,4.3813,4.3782,4.3812,4.3812,4.3812,4.3812,0,4.3831,4.3821,4.3834,4.3828,4.3818,4.3827,4.3816,4.3818,4.3819,4.3813,4.3822,4.3816,4.3823,4.3817,4.382,4.381,4.3808,4.3809,4.381,4.3808,4.3808,4.3805,4.3806,4.3811,4.3812,4.3812,4.3812,0,4.3798,4.3806,4.3797,4.3803,4.3805,4.3797,4.3802,4.3796,4.38,4.3793,4.3791,4.3797,4.3791,4.3796,4.3789,4.3791,4.3777,4.378,4.3778,4.3779,4.3768,4.3769,4.3733,4.3729,4.3762,4.3762,4.3761,0,4.3779,4.3772,4.3779,4.3777,4.3778,4.3774,4.3773,4.3782,4.378,4.378,4.3775,4.3771,4.3768,4.3758,4.376,4.3756,4.3758,4.3746,4.3758,4.3757,4.3758,4.3759,4.3758,4.3743,4.3743,4.3743,4.3742,0,4.3743,4.3749,4.3747,4.3747,4.3746,4.3746,4.3747,4.3744,4.3754,4.375,4.3746,4.3744,4.374,4.3735,4.3732,4.3732,4.3739,4.3739,4.3737,4.3734,4.3733,4.3734,4.3771,4.374,4.374,4.374,4.374,4.374,4.3717,4.3712,4.3717,4.3715,4.3717,4.3718,4.3714,4.3719,4.3716,4.3715,4.372,4.3715,4.3716,4.3713,4.3713,4.3708,4.3713,4.3709,4.3708,4.3707,4.3705,4.3735,4.3707,4.3707,4.3708,4.3708,4.3708,0,4.3682,4.3687,4.3685,4.3687,4.3686,4.3696,4.3697,4.3695,4.3691,4.3693,4.3691,4.3686,4.3683,4.3686,4.3683,4.3679,4.3682,4.3678,4.3678,4.3678,4.3701,4.3704,4.3676,4.3676,4.3676,4.3676,4.3676,4.3676,4.3664,4.3657,4.3663,4.3658,4.3662,4.3658,4.3659,4.366,4.3661,4.3657,4.3655,4.3659,4.3661,4.3659,4.3656,4.3657,4.3655,4.365,4.3652,4.3673,4.3676,4.3679,4.3682,4.365,4.365,4.3629,4.3629,4.3629]}]]